www.pogodaiklimat.ru

Погода и климат >> Архив погоды >> Австралия >> Западная Австралия >> Фицрой-Кроссинг


ПОГОДА в Фицрой-Кроссинге

  • Прогноз погоды в Фицрой-Кроссинге
  • Монитор погоды в Фицрой-Кроссинге

АРХИВ ПОГОДЫ в Фицрой-Кроссинге

Время (UTC), дата Ветер
(напр.,м/с)
 
Видим.   Явления Облачность Т
(С)
Тd
(С)
f
(%)
Тe
(С)
Тes
(С)
Комфортность P
(гПа)
Po
(гПа)
Тmin
(С)
Tmax
(С)
R
(мм)
R24
(мм)
S
(см)
19 16.09 СЗ 3 н/о н/о +20.1 +2.0 30 +21 +21 комфорт 1013.0 999.9
21 16.09 СЗ 3 н/о н/о +18.6 +9.1 54 +19 +19 1014.2 1001.1
22 16.09 Ю 3 н/о н/о +19.8 +12.6 63 +22 +22 комфорт 1015.4 1002.3
00 17.09 СЗ 6 н/о н/о +27.7 +14.0 43 +30 +30 жарко 1016.5 1003.4
01 17.09 С 5 н/о н/о +30.6 +10.5 29 +31 +31 жарко 1016.5 1003.4 +17.3
03 17.09 СЗ 4 н/о н/о +34.0 +7.9 20 +32 +32 жарко 1015.3 1002.2
04 17.09 С 4 н/о н/о +35.7 +1.9 12 +32 +32 жарко 1014.3 1001.2
06 17.09 В 3 н/о н/о +36.7 -1.3 9 +33 +33 жарко 1012.5 999.4
07 17.09 В 3 н/о н/о +36.8 -1.2 9 +33 +33 жарко 1011.9 998.8
09 17.09 В 3 н/о н/о +35.1 -2.5 9 +31 +31 жарко 1012.4 999.3
10 17.09 штиль 0 н/о н/о +31.5 -1.3 12 +28 +28 жарко 1012.9 999.8
12 17.09 ЮВ 3 н/о н/о +27.9 -0.2 16 +26 +26 жарко 1014.3 1001.2
13 17.09 Ю 2 н/о н/о +28.5 +0.3 16 +26 +26 жарко 1014.7 1001.6 +37.6
15 17.09 ЮЗ 2 н/о н/о +23.9 +0.3 21 +23 +23 комфорт 1014.3 1001.2
16 17.09 В 2 н/о н/о +21.4 0.0 24 +21 +21 комфорт 1014.1 1001.0
18 17.09 З 2 н/о н/о +21.9 -0.8 22 +21 +21 комфорт 1013.8 1000.7
19 17.09 С 3 н/о н/о +23.1 +4.1 29 +23 +23 комфорт 1014.4 1001.3
21 17.09 СЗ 3 н/о н/о +19.5 +2.4 32 +20 +20 1014.9 1001.8
22 17.09 С 3 н/о н/о +19.7 +4.2 36 +21 +21 комфорт 1015.6 1002.5
00 18.09 штиль 0 н/о н/о +29.2 +6.0 23 +28 +28 жарко 1016.8 1003.7
01 18.09 СВ 2 н/о н/о +31.6 +5.9 20 +30 +30 жарко 1016.9 1003.8 +18.3
03 18.09 С 6 н/о н/о +36.3 +3.5 13 +33 +33 жарко 1015.3 1002.2
04 18.09 С 3 н/о н/о +36.5 +2.5 12 +33 +33 жарко 1014.1 1001.0
06 18.09 СВ 5 н/о н/о +37.0 +0.4 10 +33 +33 жарко 1012.3 999.2
07 18.09 ЮВ 3 н/о н/о +37.7 +0.9 10 +34 +34 очень
жарко
1011.6 998.6
09 18.09 С 2 н/о н/о +35.9 +2.1 12 +33 +33 жарко 1011.8 998.7
10 18.09 штиль 0 н/о н/о +32.6 +1.7 14 +30 +30 жарко 1012.3 999.2
12 18.09 Ю 3 н/о н/о +29.7 +2.9 18 +28 +28 жарко 1013.3 1000.2
13 18.09 Ю 3 н/о н/о +28.0 +3.0 20 +26 +26 жарко 1013.5 1000.4 +38.5
15 18.09 СВ 3 н/о н/о +24.0 +1.6 23 +23 +23 комфорт 1013.2 1000.1
16 18.09 С 5 н/о н/о +23.7 +2.0 24 +23 +23 комфорт 1013.7 1000.6
18 18.09 СЗ 3 н/о н/о +22.1 +7.1 38 +23 +23 комфорт 1013.0 999.9
19 18.09 С 4 н/о н/о +21.3 +8.9 45 +23 +23 комфорт 1012.9 999.8
21 18.09 С 1 н/о н/о +21.3 +11.1 52 +23 +23 комфорт 1013.9 1000.8
22 18.09 СЗ 2 н/о н/о +21.8 +12.1 54 +24 +24 комфорт 1014.5 1001.4
00 19.09 З 5 н/о н/о +29.0 +12.4 36 +30 +30 жарко 1015.5 1002.4
01 19.09 З 5 н/о н/о +32.3 +9.2 24 +31 +31 жарко 1015.3 1002.2 +20.7
03 19.09 З 2 н/о н/о +35.2 +2.6 13 +32 +32 жарко 1013.5 1000.4
04 19.09 З 5 н/о н/о +36.1 +3.3 13 +33 +33 жарко 1012.0 998.9
06 19.09 ЮЗ 2 н/о н/о +36.2 +2.3 12 +33 +33 жарко 1010.0 997.0
07 19.09 З 3 н/о н/о +37.3 +3.1 12 +34 +34 очень
жарко
1009.6 996.6
09 19.09 СЗ 4 н/о н/о +35.8 +2.0 12 +32 +32 жарко 1009.7 996.7
10 19.09 З 4 н/о н/о +32.4 +2.5 15 +30 +30 жарко 1010.2 997.2
12 19.09 З 4 н/о н/о +28.8 +3.6 20 +27 +27 жарко 1011.2 998.2
13 19.09 З 3 н/о н/о +28.3 +3.2 20 +27 +27 жарко 1011.5 998.5 +38.4
15 19.09 З 7 н/о н/о +29.0 +5.8 23 +28 +28 жарко 1011.2 998.2
16 19.09 З 6 н/о н/о +28.0 +5.6 24 +27 +27 жарко 1011.1 998.1
18 19.09 СЗ 2 н/о н/о +24.4 +6.6 32 +24 +24 комфорт 1011.3 998.3
19 19.09 С 3 н/о н/о +22.2 +5.6 34 +23 +23 комфорт 1011.5 998.5
21 19.09 СЗ 5 н/о н/о +21.8 +6.9 38 +23 +23 комфорт 1012.7 999.6
22 19.09 СЗ 4 н/о н/о +22.0 +7.0 38 +23 +23 комфорт 1013.4 1000.3
00 20.09 З 6 н/о н/о +29.1 +8.2 27 +29 +29 жарко 1014.4 1001.3
01 20.09 ЮЗ 5 н/о н/о +30.4 +7.0 23 +29 +29 жарко 1014.4 1001.3 +21.0
03 20.09 З 4 н/о н/о +32.1 +5.6 19 +30 +30 жарко 1013.6 1000.5
04 20.09 Ю 5 н/о н/о +34.0 +4.6 16 +31 +31 жарко 1012.5 999.4
06 20.09 ЮЗ 5 н/о н/о +35.0 +2.5 13 +32 +32 жарко 1010.7 997.7
07 20.09 ЮЗ 5 н/о н/о +35.3 +1.6 12 +32 +32 жарко 1010.5 997.5
09 20.09 Ю 5 н/о н/о +33.4 +0.1 12 +30 +30 жарко 1011.2 998.2
10 20.09 Ю 4 н/о н/о +31.5 +0.8 14 +29 +29 жарко 1011.6 998.6
12 20.09 Ю 4 н/о н/о +28.8 +1.3 17 +27 +27 жарко 1012.9 999.8
13 20.09 Ю 4 н/о н/о +27.5 +1.1 18 +25 +25 комфорт 1012.9 999.8 +36.0
15 20.09 Ю 4 н/о н/о +25.8 +0.5 19 +24 +24 комфорт 1012.3 999.2
16 20.09 ЮВ 6 н/о н/о +26.2 0.0 18 +24 +24 комфорт 1012.0 998.9
18 20.09 Ю 3 н/о н/о +22.8 -0.6 21 +22 +22 комфорт 1012.6 999.5
19 20.09 Ю 3 н/о н/о +20.9 -1.0 23 +21 +21 комфорт 1012.8 999.7
21 20.09 Ю 4 н/о н/о +19.9 -0.1 26 +20 +20 1015.0 1001.9
22 20.09 Ю 5 н/о н/о +21.0 -0.9 23 +21 +21 комфорт 1015.3 1002.2
00 21.09 ЮВ 5 н/о н/о +26.7 -0.3 17 +25 +25 комфорт 1016.3 1003.2
01 21.09 ЮВ 7 н/о н/о +28.8 +0.5 16 +26 +26 жарко 1016.2 1003.1 +19.5
03 21.09 ЮВ 4 н/о н/о +31.6 +0.9 14 +29 +29 жарко 1014.6 1001.5
04 21.09 В 4 н/о н/о +33.5 +0.2 12 +30 +30 жарко 1013.5 1000.4
06 21.09 Ю 4 н/о н/о +35.2 +0.3 11 +32 +32 жарко 1011.8 998.7
07 21.09 В 3 н/о н/о +35.4 +0.5 11 +32 +32 жарко 1011.2 998.2
09 21.09 Ю 2 н/о н/о +33.7 -0.8 11 +30 +30 жарко 1011.3 998.3
10 21.09 Ю 3 н/о н/о +31.3 +0.6 14 +28 +28 жарко 1011.9 998.8
12 21.09 Ю 4 н/о н/о +28.8 +0.5 16 +26 +26 жарко 1012.8 999.7
13 21.09 Ю 5 н/о н/о +28.4 +0.2 16 +26 +26 жарко 1013.2 1000.1 +36.2
15 21.09 Ю 3 н/о н/о +25.4 +0.8 20 +24 +24 комфорт 1013.3 1000.2
16 21.09 Ю 3 н/о н/о +23.9 +0.9 22 +23 +23 комфорт 1013.4 1000.3
18 21.09 Ю 2 н/о н/о +21.5 -0.5 23 +21 +21 комфорт 1013.7 1000.6
19 21.09 Ю 4 н/о н/о +20.7 -0.6 24 +21 +21 комфорт 1013.7 1000.6
21 21.09 Ю 5 н/о н/о +20.6 -2.5 21 +20 +20 1014.8 1001.7
22 21.09 Ю 4 н/о н/о +20.5 -2.5 21 +20 +20 1015.3 1002.2
00 22.09 ЮВ 3 н/о н/о +26.2 -3.4 14 +24 +24 комфорт 1016.2 1003.1
01 22.09 ЮВ 5 н/о н/о +30.5 -2.1 12 +27 +27 жарко 1015.9 1002.8 +20.0
03 22.09 В 4 н/о н/о +34.6 +3.2 14 +32 +32 жарко 1014.1 1001.0
04 22.09 СВ 4 н/о н/о +36.2 +2.3 12 +33 +33 жарко 1012.9 999.8
06 22.09 СЗ 3 н/о н/о +37.7 -0.6 9 +34 +34 очень
жарко
1011.3 998.3
07 22.09 З 4 н/о н/о +38.7 -3.2 7 +35 +35 очень
жарко
1010.7 997.7
09 22.09 СЗ 5 н/о н/о +36.6 -3.0 8 +33 +33 жарко 1011.2 998.2
10 22.09 З 4 н/о н/о +32.7 -2.9 10 +29 +29 жарко 1012.1 999.0
12 22.09 З 4 н/о н/о +28.6 -0.5 15 +26 +26 жарко 1013.5 1000.4
13 22.09 ЮЗ 3 н/о н/о +28.3 +0.1 16 +26 +26 жарко 1013.8 1000.7 +39.1
15 22.09 Ю 4 н/о н/о +28.8 +3.6 20 +27 +27 жарко 1014.8 1001.7
16 22.09 З 5 н/о н/о +28.1 +5.6 24 +27 +27 жарко 1014.5 1001.4
18 22.09 СЗ 6 н/о н/о +24.3 +7.4 34 +25 +25 комфорт 1014.3 1001.2
19 22.09 СЗ 5 н/о н/о +24.1 +11.1 44 +25 +25 комфорт 1014.4 1001.3
21 22.09 Ю 1 н/о н/о +22.2 +13.5 58 +25 +25 комфорт 1016.0 1002.9
22 22.09 ЮВ 3 н/о н/о +23.1 +12.4 51 +26 +26 жарко 1016.9 1003.8
00 23.09 СВ 4 н/о н/о +23.4 +17.6 70 +29 +29 душно 1018.5 1005.4
01 23.09 ЮВ 4 н/о в посл. час дождь {туман} н/о +24.8 +16.8 61 +28 +28 жарко 1018.6 1005.5 +22.1
03 23.09 В 5 н/о н/о +31.2 +10.0 27 +31 +31 жарко 1017.3 1004.2
04 23.09 СВ 6 н/о {туман} н/о +32.0 +8.3 23 +31 +31 жарко 1016.1 1003.0
06 23.09 Ю 4 н/о н/о +34.1 +8.0 20 +32 +32 жарко 1014.4 1001.3
07 23.09 ЮВ 4 н/о {туман} н/о +31.8 +8.1 23 +31 +31 жарко 1013.8 1000.7
09 23.09 Ю 11 н/о н/о +25.1 +12.7 46 +27 +27 жарко 1016.7 1003.6
10 23.09 ЮВ 10 н/о {туман} н/о +21.9 +11.9 53 +24 +24 комфорт 1017.8 1004.7
12 23.09 ЮВ 6 н/о н/о +20.7 +10.8 53 +22 +22 комфорт 1020.5 1007.3
13 23.09 В 6 н/о {туман} н/о +20.7 +10.8 53 +22 +22 комфорт 1020.9 1007.7 +34.8
15 23.09 В 5 н/о н/о +20.4 +11.3 56 +22 +22 комфорт 1020.1 1006.9
16 23.09 В 6 н/о н/о +20.2 +12.2 60 +22 +22 комфорт 1019.8 1006.6
18 23.09 В 3 н/о н/о +19.2 +12.7 66 +21 +21 комфорт 1018.5 1005.4
19 23.09 В 4 н/о н/о +19.3 +12.3 64 +21 +21 комфорт 1018.5 1005.4

 

Местоположение метеостанции Фицрой-Кроссинг (Западная Австралия, Австралия): широта -18.18 долгота 125.56 высота над уровнем моря 115 м.

В архиве по умолчанию представлена погода в Фицрой-Кроссинге за последнюю неделю. Архивные данные за месяц целиком и за предыдущие месяцы, начиная с января 2011 года, Вы можете получить, выбрав интересующий диапазон дат из раскрывающегося списка и нажав кнопку "Ввод!".


*Определитесь, кто Вы:
робот инопланетянин человек

Внимание! Время в таблицах - всемирное. Для получения местного времени необходимо прибавить поправку, которая равна 8 ч.

Смотрите также архив погоды в соседних городах и на ближайших метеорологических станциях:

Погода на Базе ВВС Curtin (Западная Австралия, Австралия) (196 км)
Погода в Дерби (Северная территория, Австралия) (221 км)
Погода в Холс Крик (Западная Австралия, Австралия) (222 км)
Погода в Робак Запад (Западная Австралия, Австралия) (344 км)
Погода в Аэропорту Аргайл (Западная Австралия, Австралия) (352 км)
Погода в Бруме (Западная Австралия, Австралия) (353 км)
Погода на Острове Адель (Западная Австралия, Австралия) (392 км)
Погода в Уиндеме (Западная Австралия, Австралия) (406 км)
Погода в Кунунарре (Западная Австралия, Австралия) (428 км)
Погода в Калумбуру (Западная Австралия, Австралия) (447 км)

Пояснения к столбцам:

Ветер - указаны скорость ветра в м/с - средняя за 10 мин, порывы в срок и между сроками (в фигурных скобках) и направление, откуда дует ветер: С - северный, СВ - северо-восточный, В - восточный, ЮВ - юго-восточный, Ю - южный, ЮЗ - юго-западный, З - западный, СЗ - северо-западный.
Видимость - горизонтальная дальность видимости в метрах или километрах. При видимости от 1 до 10 км при отсутствии осадков обычно наблюдается дымка, при ухудшении видимости до 1 км и менее - туман. В сухую погоду видимость может ухудшаться дымом, пылью или мглою.
Явления - указаны атмосферные явления, наблюдавшиеся в срок или в последний час перед сроком; фигурными скобками обозначены явления, наблюдавшиеся между сроками (за 1-3 часа до срока); квадратными скобками обозначены град или гололедные отложения с указанием их диаметра в мм.
Облачность - указаны через наклонную черту общая и нижняя облачность в баллах и высота нижней границы облаков в метрах; квадратными скобками обозначены формы облаков: Ci - перистые, Cs - перисто-слоистые, Cc - перисто-кучевые, Ac - высококучевые, As - высокослоистые, Sc - слоисто-кучевые, Ns - слоисто-дождевые, Cu - кучевые, Cb - кучево-дождевые. Подробнее классификацию облаков см. в Атласе облаков (PDF).
T - Температура воздуха - температура, измеренная на высоте 2 м над землей.
Td - Температура точки росы - температура, при понижении до которой содержащийся в воздухе водяной пар достигнет насыщения.
f - Относительная влажность воздуха - влажноcть воздуха, измеренная на высоте 2 м над землей.
Te - Эффективная температура - температура, которую ощущает одетый по сезону человек в тени. Характеристика душности погоды. При расчете учитывается влияние влажности воздуха и скорости ветра на теплоощущения человека.
Tes - Эффективная температура на солнце - температура, которую ощущает человек, с поправкой на солнечный нагрев. Характеристика знойности погоды. Зависит от высоты солнца над горизонтом, облачности и скорости ветра. Ночью, в пасмурную погоду, а также при ветре 12 м/с и более поправка равна нулю.
P - Атмосферное давление - приведенное к уровню моря атмосферное давление.
Po - Атмосферное давление - измеренное на уровне метеостанции атмосферное давление.
Tmin - Минимальная температура - минимум температуры воздуха на высоте 2 м над землей.
Tmax - Максимальная температура - максимум температуры воздуха на высоте 2 м над землей.
R - Количество осадков - Количество выпавших осадков за период времени, мм. При наведении курсора мыши на число - период времени, за который выпало указанное количество осадков.
R24 - Количество осадков - Количество выпавших осадков за 24 часа, мм.
S - Снежный покров - Высота снежного покрова, см. При наведении курсора мыши на число - состояние снежного покрова и степень покрытия местности в баллах.